SCP
0 0 0 0 0 0 0 0 0 0 0 0 0 0 0 -0 0 0 0 0 0 0 0 0 0 0 0 0 0 0 0 0 0 0 0 0 0 0 0 0 0 0 0 0
0 0 0 0 0 -0 0 0 0 0 0 0 0 0 -0 -0 0 0 0 0 0 0 0 0 0 0 0 0 0 0 0 0 0 0 0 0 0 0 0 0 0 0 0 -0
0 0 0 0 0 0 0 0 0 0 0 0 0 0 0 0 0 0 0 0 0 0 0 0 0 0 0 0 0 0 0 0 0 0 0 0 0 0 0 0 0 0 0 0
0 0 0 0 0 0 0 0 0 0 0 0 0 0 0 0 0 0 0 0 0 0 0 0 0 0 0 0 0 0 0 0 0 0 0 0 0 0 0 0 0 0 0 0
0 0 0 0 0 0 0 0 0 0 0 0 0 0 0 0 0 0 0 0 0 0 0 0 0 0 0 0 0 0 0 0 0 0 0 0 -0 0 -0 -0 0 0 0 0
0 0 0 0 0 0 0 0 0 0 0 0 0 0 0 0 0 0 0 0 0 0 0 0 0 0 0 0 0 0 0 0 0 0 0 0 0 -0 0 0 0 0 0 0
0 0 0 0 0 0 0 0 0 0 0 0 0 0 0 0 0 0 0 0 0 0 0 0 0 0 0 0 0 0 0 0 0 0 0 0 0 0 0 0 0 0 0 0
0 0 0 0 0 0 0 0 0 0 0 0 0 0 0 0 0 0 0 0 0 0 0 0 0 0 0 0 0 0 0 0 0 0 0 0 0 0 0 0 0 0 0 0
0 0 0 0 0 0 0 0 0 0 0 0 0 0 0 0 0 0 0 0 0 0 0 0 0 0 0 0 0 0 0 0 0 0 0 0 0 0 0 -0 0 0 0 -0
0 0 0 0 0 0 0 0 0 0 0 0 0 0 0 0 0 0 0 0 0 0 0 0 0 0 0 0 0 0 0 0 0 0 0 0 0 0 -0 -0 -0 0 0 0
0 0 0 0 0 0 0 0 0 0 0 0 0 0 0 0 0 0 0 0 0 0 0 0 0 0 0 0 0 0 0 0 0 0 0 -0 0 0 -0 0 0 -0 -0 -0
0 0 0 0 0 0 0 0 0 0 0 0 0 -0 0 0 0 0 0 0 0 0 0 0 0 0 0 0 0 0 0 0 0 0 0 0 0 -0 0 -0 -0 -0 -0 -0
0 0 0 0 0 0 0 0 0 0 0 0 0 0 -0 0 -0 0 0 0 0 0 0 0 0 0 0 -0 0 0 0 0 0 0 0 -0 -0 -0 -0 -0 0 0 0 -0
0 0 0 0 0 0 0 0 0 0 0 0 0 0 -0 0 0 0 0 0 0 0 0 0 0 0 0 -0 -0 0 0 0 0 0 -0 -0 0 0 0 0 0 0 -0 -0
0 0 0 0 0 0 0 0 0 0 0 0 0 -0 -0 0 -0 0 0 0 0 0 0 0 0 -0 -0 -0 -0 0 0 0 -0 0 0 0 0 0 0 0 0 -0 0 -0
0 0 0 0 0 0 0 0 0 0 0 0 0 0 0 -0 0 0 0 0 0 0 0 0 -0 -0 -0 -0 0 0 0 0 0 0 0 0 0 0 0 0 0 0 -0 -0
0 0 0 0 0 0 0 0 0 0 0 0 0 -0 0 0 0 0 0 0 0 0 0 -0 -0 -0 -0 -0 0 0 -0 -0 -0 0 0 0 0 0 0 0 0 0 -0 -0
0 0 0 0 0 0 0 0 0 0 0 0 -0 -0 0 -0 0 -0 0 0 0 0 0 -0 -0 -0 -0 -0 0 0 -0 -0 0 0 0 0 0 0 0 0 0 0 -0 -0
0 0 0 0 0 0 0 0 0 0 0 0 0 0 0 0 0 0 0 0 0 0 -0 0 -0 -0 -0 -0 -0 -0 -0 -0 0 0 0 0 0 0 0 -0 -0 0 -0 0
0 0 0 0 0 0 0 0 0 0 0 0 0 0 0 0 0 -0 0 0 -0 0 0 0 -0 -0 0 -0 -0 -0 -0 0 0 0 0 0 0 0 0 -0 -0 0 0 0
0 0 0 0 0 0 0 0 0 0 -0 -0 0 0 0 0 0 0 -0 -0 -0 -0 0 -0 -0 -0 0 -0 0 -0 -0 -0 0 0 0 0 0 0 0 0 -0 0 -0 0
0 0 0 0 0 0 -0 -0 0 0 0 0 0 0 0 0 0 0 -0 0 -0 0 -0 -0 -0 -0 -0 -0 0 -0 -0 0 0 0 0 0 0 0 0 0 -0 -0 0 0
0 0 0 0 0 0 -0 -0 0 -0 0 0 0 0 0 0 0 0 0 -0 -0 -0 0 -0 -0 0 -0 -0 -0 -0 0 0 0 0 0 0 0 0 0 0 0 -0 -0 0
0 0 0 0 0 0 -0 0 0 -0 0 0 -0 -0 0 -0 0 -0 -0 0 -0 -0 0 -0 -0 -0 -0 0 0 0 -0 -0 -0 0 0 -0 0 0 0 0 0 -0 -0 -0
0 0 0 0 0 0 0 0 0 -0 -0 -0 0 0 -0 0 0 0 0 0 0 0 -0 -0 -0 -0 -0 0 0 -0 -0 -0 0 0 -0 0 -0 0 0 0 0 0 -0 -0
0 0 0 0 0 0 0 0 0 0 0 0 0 0 0 0 0 0 -0 0 -0 0 0 -0 -0 -0 0 -0 -0 -0 -0 0 -0 -0 -0 -0 -0 0 0 -0 -0 0 -0 -0
0 0 0 0 0 -0 0 0 0 0 0 0 0 0 0 0 0 0 -0 0 -0 0 0 -0 0 -0 -0 0 -0 0 -0 -0 -0 -0 -0 -0 -0 -0 0 -0 -0 -0 -0 -0
Wind_Speed_500mb
46 44 45 56 65 79 65 35 7 8 18 3 3 3 10 21 20 37 9 4 4 4 1 5 6 8 6 7 4 7 2 7 6 15 16 9 8 8 1 3 5 4 3 11
43 44 47 53 56 73 62 47 15 23 11 4 7 13 15 9 15 16 10 7 9 6 7 7 5 7 5 7 8 13 10 1 7 16 10 2 5 11 10 2 5 10 4 8
46 44 47 49 50 56 46 15 7 13 12 9 8 11 12 22 31 14 14 6 5 9 7 5 8 7 6 7 8 14 14 6 11 9 12 10 12 11 20 13 7 8 13 24
47 45 46 48 53 42 31 7 4 9 6 11 19 18 12 21 21 11 12 5 8 2 3 6 6 5 9 16 9 10 9 9 7 12 17 24 26 28 26 19 14 13 23 18
43 40 41 45 49 37 17 11 12 19 19 17 12 7 12 20 30 18 7 7 6 4 2 5 6 1 3 8 2 5 1 7 5 8 24 22 25 27 24 28 20 28 20 24
41 37 40 43 40 32 8 11 18 10 15 10 3 4 10 28 34 23 28 17 10 9 7 13 23 28 19 16 8 3 4 7 3 9 11 26 9 15 13 12 14 5 5 5
42 40 40 38 31 24 20 14 11 5 8 8 7 16 30 26 34 21 36 42 10 9 21 30 27 14 15 20 17 19 8 6 3 8 10 5 9 8 14 17 11 10 7 15
40 40 37 32 25 15 18 14 9 7 7 14 21 20 12 27 42 12 13 31 9 12 8 7 9 7 9 8 9 1 12 8 2 1 3 15 5 12 14 20 28 6 21 26
33 36 35 27 23 14 16 22 18 13 8 9 11 13 13 9 15 10 12 38 19 9 5 5 2 4 5 5 5 7 7 8 8 3 4 7 6 18 25 19 13 18 27 26
33 30 29 25 20 15 18 19 23 20 11 29 10 8 6 11 16 7 12 27 16 13 4 2 2 4 4 3 2 4 5 4 7 6 7 10 16 19 33 2 12 42 38 51
27 25 22 22 20 16 20 21 21 22 14 43 49 32 21 21 22 4 19 16 11 9 9 5 5 4 4 5 6 3 3 3 4 4 4 13 22 6 6 9 39 47 60 60
26 23 19 21 19 16 21 21 25 19 26 30 41 59 54 52 47 30 14 8 6 6 5 4 5 4 5 2 4 7 3 3 4 8 10 5 24 31 17 49 54 63 68 72
25 22 19 21 19 21 17 26 24 28 25 44 25 12 20 32 24 40 14 2 5 4 8 3 3 2 5 1 2 3 3 8 4 10 3 14 51 32 52 59 62 79 81 77
23 21 20 21 21 23 20 26 28 27 11 9 14 13 22 12 10 27 35 15 5 10 4 2 2 3 3 3 4 4 6 8 7 9 16 43 13 53 64 76 80 76 76 72
22 21 19 20 18 24 20 24 35 28 14 8 22 42 29 19 19 25 25 23 9 2 4 3 4 5 5 4 1 2 2 4 2 7 35 22 48 69 72 75 82 66 65 101
22 19 19 17 19 19 15 9 10 12 25 8 7 19 17 25 32 35 30 26 11 7 1 5 8 4 3 2 3 2 6 8 19 17 47 43 57 59 66 78 70 52 90 107
22 23 20 16 24 19 17 7 12 8 15 7 9 11 13 13 41 36 32 26 9 7 8 5 6 2 1 2 3 11 25 36 33 13 36 34 45 64 76 73 56 80 87 92
23 19 14 18 13 15 28 28 27 24 14 8 5 7 12 13 18 12 15 10 8 8 6 6 2 1 5 4 9 22 35 38 16 38 44 46 56 64 69 75 78 65 100 105
24 19 18 17 11 10 10 10 8 24 13 5 5 4 5 6 17 10 6 14 4 7 4 2 2 3 3 2 10 28 33 28 38 49 48 48 56 63 68 75 75 73 100 105
26 22 10 7 6 9 12 2 7 12 9 9 7 7 6 12 9 21 13 13 7 6 3 7 1 1 10 10 18 22 29 35 37 44 51 54 57 61 67 70 70 70 92 96
30 13 8 9 10 12 7 8 9 9 6 11 13 20 8 12 6 4 11 6 6 3 4 4 5 2 3 12 24 26 30 34 34 36 41 43 50 58 61 69 72 77 83 90
22 15 14 11 8 8 6 5 7 8 6 11 11 21 27 13 5 5 6 2 2 4 16 4 4 4 4 15 22 27 30 35 42 46 45 45 52 55 54 61 71 78 82 79
27 7 8 7 7 5 8 7 5 5 8 13 12 7 13 12 6 2 3 1 3 26 6 3 3 7 5 20 26 27 28 32 39 47 45 44 60 58 51 55 63 71 79 86
8 11 8 7 7 8 7 4 4 7 19 27 14 6 11 5 4 4 3 5 7 4 3 3 2 1 11 19 21 25 29 31 36 44 45 42 59 64 49 53 59 67 80 83
10 9 8 11 19 3 8 15 17 31 28 38 18 10 9 1 4 1 4 4 1 3 2 3 8 4 10 15 20 30 22 28 36 42 41 42 52 57 53 54 59 64 70 76
9 9 7 16 2 5 10 13 25 25 26 18 8 4 4 2 6 3 5 3 4 5 5 9 10 4 5 11 19 21 24 30 39 44 39 42 49 54 48 52 54 58 64 69
8 11 23 26 13 13 10 16 28 29 28 3 1 3 11 4 5 1 3 8 7 16 19 18 11 13 1 16 16 17 19 32 39 43 44 55 59 51 51 56 61 53 58 60
Wind_Direction_500mb
322 326 331 338 343 349 349 345 329 121 182 239 272 251 299 321 329 342 301 97 147 114 163 289 260 236 264 175 148 122 103 150 263 250 272 195 120 133 347 204 208 250 290 272
319 324 329 336 344 348 346 330 292 23 200 317 343 317 310 282 330 324 302 7 40 44 26 355 319 354 358 167 149 162 184 213 327 331 4 7 161 192 174 337 119 212 209 251
321 322 327 335 342 349 343 315 326 341 352 63 36 337 303 334 321 319 18 11 49 17 354 164 279 314 349 50 191 151 140 157 182 217 246 234 284 238 205 178 166 214 230 267
317 320 326 332 341 352 345 301 294 24 330 345 333 342 286 339 341 351 14 322 14 68 286 288 273 342 351 4 137 149 136 200 226 257 273 282 276 269 265 206 214 193 261 258
315 318 320 330 340 351 359 320 352 340 301 300 348 347 295 329 334 325 322 358 311 64 256 243 253 330 230 221 328 46 328 259 249 265 271 281 300 296 275 263 257 244 264 275
307 313 313 324 341 357 354 308 286 296 283 299 347 262 307 317 315 305 319 316 307 288 241 258 268 262 230 223 206 250 207 172 20 274 306 306 310 334 5 20 54 320 259 283
300 305 310 319 334 355 347 327 312 286 272 273 247 290 299 308 310 295 286 293 243 249 297 291 275 264 267 232 248 193 225 118 131 275 340 279 193 323 338 343 44 46 351 337
294 301 311 316 322 333 343 337 276 245 272 291 291 270 313 309 311 295 345 20 46 345 357 5 353 351 17 341 25 34 159 113 323 150 228 284 129 9 353 338 312 33 339 324
295 296 303 309 311 295 313 316 287 248 289 248 297 315 293 284 305 312 323 341 341 332 57 51 48 258 114 341 279 46 69 98 131 24 231 264 8 342 319 300 272 357 336 330
289 290 296 300 301 278 276 307 289 242 251 272 299 232 291 282 280 276 307 335 339 22 32 34 156 291 119 1 242 274 344 8 186 236 252 277 10 334 323 41 299 326 320 310
288 285 283 290 292 261 261 301 301 253 247 278 276 271 250 253 279 302 329 336 353 24 42 35 307 55 316 29 344 199 136 272 261 1 288 283 8 359 356 293 318 312 307 300
280 276 267 276 282 249 251 289 305 278 249 263 279 288 282 262 246 268 298 282 351 29 74 8 330 345 2 220 293 17 1 127 249 190 234 306 339 337 308 329 316 313 313 308
268 264 257 267 255 239 257 265 302 313 271 288 279 299 278 302 280 243 239 228 25 65 24 213 236 272 120 297 336 322 56 17 229 8 327 331 322 326 324 321 316 314 311 309
262 251 241 262 247 234 255 255 295 309 270 279 286 269 242 271 273 193 206 251 298 3 320 65 189 194 308 219 232 176 215 360 319 258 290 323 303 319 324 321 313 310 317 315
251 238 239 255 236 231 257 264 295 286 236 286 287 297 247 264 222 198 204 218 221 21 6 9 249 313 18 356 312 242 131 248 285 271 310 300 298 310 315 314 315 322 327 325
240 225 244 248 213 229 231 287 277 285 223 289 295 316 286 236 235 197 200 208 181 125 40 277 283 249 159 238 236 148 49 335 301 282 303 307 303 311 323 320 326 334 331 325
224 223 225 247 209 221 214 226 306 294 173 264 293 287 279 322 177 189 192 197 180 176 161 226 250 285 98 213 258 13 338 331 325 322 324 319 328 316 326 332 330 327 333 326
212 216 224 197 210 223 247 261 275 235 208 257 274 274 300 178 168 171 161 170 222 229 234 222 247 189 207 246 10 345 346 338 328 327 330 326 325 330 336 335 332 338 337 336
198 190 191 202 213 228 249 302 241 191 208 256 242 266 286 324 173 144 169 210 181 213 213 138 102 234 215 23 341 351 340 336 318 327 336 335 337 335 337 339 343 343 340 341
183 179 171 200 215 193 154 168 173 205 236 234 249 230 271 321 175 196 180 179 171 195 190 134 185 103 130 28 4 346 337 335 337 335 335 336 334 335 338 340 343 345 342 343
174 179 171 175 152 155 197 219 195 193 241 223 235 215 218 264 230 165 203 197 152 163 179 208 208 145 77 359 354 344 343 347 347 342 336 347 337 337 341 347 347 349 345 350
177 148 151 157 188 212 242 215 186 207 241 210 204 206 211 258 257 81 357 112 58 201 142 218 165 119 29 347 334 336 341 342 350 356 357 356 349 350 357 357 353 357 354 351
138 144 151 181 170 238 221 216 193 228 218 215 204 187 190 215 206 124 107 209 221 124 192 136 83 136 352 343 336 334 339 340 348 348 356 352 353 5 9 4 9 8 4 359
145 161 187 213 193 235 201 223 326 313 264 292 263 235 197 181 97 157 127 247 138 226 105 92 156 203 2 334 337 338 335 341 347 354 357 354 354 5 14 16 16 13 9 4
170 192 219 216 235 229 230 241 261 242 266 285 287 261 164 126 116 29 51 325 41 45 154 180 170 76 350 343 331 341 12 16 358 356 359 357 358 4 11 16 15 17 17 12
189 219 248 258 283 251 215 245 260 280 279 290 210 96 66 358 146 103 208 99 196 173 161 184 175 162 347 334 10 38 32 20 16 10 16 12 5 359 6 14 15 22 23 21
216 233 235 254 295 265 237 226 262 257 284 261 115 187 204 160 102 112 120 179 191 151 155 167 182 152 87 18 33 31 24 25 25 22 18 15 16 17 10 15 15 20 26 28
Wind_Speed_850mb
46 44 45 56 65 79 65 35 7 8 18 3 3 3 10 21 20 37 9 4 4 4 1 5 6 8 6 7 4 7 2 7 6 15 16 9 8 8 1 3 5 4 3 11
43 44 47 53 56 73 62 47 15 23 11 4 7 13 15 9 15 16 10 7 9 6 7 7 5 7 5 7 8 13 10 1 7 16 10 2 5 11 10 2 5 10 4 8
46 44 47 49 50 56 46 15 7 13 12 9 8 11 12 22 31 14 14 6 5 9 7 5 8 7 6 7 8 14 14 6 11 9 12 10 12 11 20 13 7 8 13 24
47 45 46 48 53 42 31 7 4 9 6 11 19 18 12 21 21 11 12 5 8 2 3 6 6 5 9 16 9 10 9 9 7 12 17 24 26 28 26 19 14 13 23 18
43 40 41 45 49 37 17 11 12 19 19 17 12 7 12 20 30 18 7 7 6 4 2 5 6 1 3 8 2 5 1 7 5 8 24 22 25 27 24 28 20 28 20 24
41 37 40 43 40 32 8 11 18 10 15 10 3 4 10 28 34 23 28 17 10 9 7 13 23 28 19 16 8 3 4 7 3 9 11 26 9 15 13 12 14 5 5 5
42 40 40 38 31 24 20 14 11 5 8 8 7 16 30 26 34 21 36 42 10 9 21 30 27 14 15 20 17 19 8 6 3 8 10 5 9 8 14 17 11 10 7 15
40 40 37 32 25 15 18 14 9 7 7 14 21 20 12 27 42 12 13 31 9 12 8 7 9 7 9 8 9 1 12 8 2 1 3 15 5 12 14 20 28 6 21 26
33 36 35 27 23 14 16 22 18 13 8 9 11 13 13 9 15 10 12 38 19 9 5 5 2 4 5 5 5 7 7 8 8 3 4 7 6 18 25 19 13 18 27 26
33 30 29 25 20 15 18 19 23 20 11 29 10 8 6 11 16 7 12 27 16 13 4 2 2 4 4 3 2 4 5 4 7 6 7 10 16 19 33 2 12 42 38 51
27 25 22 22 20 16 20 21 21 22 14 43 49 32 21 21 22 4 19 16 11 9 9 5 5 4 4 5 6 3 3 3 4 4 4 13 22 6 6 9 39 47 60 60
26 23 19 21 19 16 21 21 25 19 26 30 41 59 54 52 47 30 14 8 6 6 5 4 5 4 5 2 4 7 3 3 4 8 10 5 24 31 17 49 54 63 68 72
25 22 19 21 19 21 17 26 24 28 25 44 25 12 20 32 24 40 14 2 5 4 8 3 3 2 5 1 2 3 3 8 4 10 3 14 51 32 52 59 62 79 81 77
23 21 20 21 21 23 20 26 28 27 11 9 14 13 22 12 10 27 35 15 5 10 4 2 2 3 3 3 4 4 6 8 7 9 16 43 13 53 64 76 80 76 76 72
22 21 19 20 18 24 20 24 35 28 14 8 22 42 29 19 19 25 25 23 9 2 4 3 4 5 5 4 1 2 2 4 2 7 35 22 48 69 72 75 82 66 65 101
22 19 19 17 19 19 15 9 10 12 25 8 7 19 17 25 32 35 30 26 11 7 1 5 8 4 3 2 3 2 6 8 19 17 47 43 57 59 66 78 70 52 90 107
22 23 20 16 24 19 17 7 12 8 15 7 9 11 13 13 41 36 32 26 9 7 8 5 6 2 1 2 3 11 25 36 33 13 36 34 45 64 76 73 56 80 87 92
23 19 14 18 13 15 28 28 27 24 14 8 5 7 12 13 18 12 15 10 8 8 6 6 2 1 5 4 9 22 35 38 16 38 44 46 56 64 69 75 78 65 100 105
24 19 18 17 11 10 10 10 8 24 13 5 5 4 5 6 17 10 6 14 4 7 4 2 2 3 3 2 10 28 33 28 38 49 48 48 56 63 68 75 75 73 100 105
26 22 10 7 6 9 12 2 7 12 9 9 7 7 6 12 9 21 13 13 7 6 3 7 1 1 10 10 18 22 29 35 37 44 51 54 57 61 67 70 70 70 92 96
30 13 8 9 10 12 7 8 9 9 6 11 13 20 8 12 6 4 11 6 6 3 4 4 5 2 3 12 24 26 30 34 34 36 41 43 50 58 61 69 72 77 83 90
22 15 14 11 8 8 6 5 7 8 6 11 11 21 27 13 5 5 6 2 2 4 16 4 4 4 4 15 22 27 30 35 42 46 45 45 52 55 54 61 71 78 82 79
27 7 8 7 7 5 8 7 5 5 8 13 12 7 13 12 6 2 3 1 3 26 6 3 3 7 5 20 26 27 28 32 39 47 45 44 60 58 51 55 63 71 79 86
8 11 8 7 7 8 7 4 4 7 19 27 14 6 11 5 4 4 3 5 7 4 3 3 2 1 11 19 21 25 29 31 36 44 45 42 59 64 49 53 59 67 80 83
10 9 8 11 19 3 8 15 17 31 28 38 18 10 9 1 4 1 4 4 1 3 2 3 8 4 10 15 20 30 22 28 36 42 41 42 52 57 53 54 59 64 70 76
9 9 7 16 2 5 10 13 25 25 26 18 8 4 4 2 6 3 5 3 4 5 5 9 10 4 5 11 19 21 24 30 39 44 39 42 49 54 48 52 54 58 64 69
8 11 23 26 13 13 10 16 28 29 28 3 1 3 11 4 5 1 3 8 7 16 19 18 11 13 1 16 16 17 19 32 39 43 44 55 59 51 51 56 61 53 58 60
Wind_Direction_850mb
322 326 331 338 343 349 349 345 329 121 182 239 272 251 299 321 329 342 301 97 147 114 163 289 260 236 264 175 148 122 103 150 263 250 272 195 120 133 347 204 208 250 290 272
319 324 329 336 344 348 346 330 292 23 200 317 343 317 310 282 330 324 302 7 40 44 26 355 319 354 358 167 149 162 184 213 327 331 4 7 161 192 174 337 119 212 209 251
321 322 327 335 342 349 343 315 326 341 352 63 36 337 303 334 321 319 18 11 49 17 354 164 279 314 349 50 191 151 140 157 182 217 246 234 284 238 205 178 166 214 230 267
317 320 326 332 341 352 345 301 294 24 330 345 333 342 286 339 341 351 14 322 14 68 286 288 273 342 351 4 137 149 136 200 226 257 273 282 276 269 265 206 214 193 261 258
315 318 320 330 340 351 359 320 352 340 301 300 348 347 295 329 334 325 322 358 311 64 256 243 253 330 230 221 328 46 328 259 249 265 271 281 300 296 275 263 257 244 264 275
307 313 313 324 341 357 354 308 286 296 283 299 347 262 307 317 315 305 319 316 307 288 241 258 268 262 230 223 206 250 207 172 20 274 306 306 310 334 5 20 54 320 259 283
300 305 310 319 334 355 347 327 312 286 272 273 247 290 299 308 310 295 286 293 243 249 297 291 275 264 267 232 248 193 225 118 131 275 340 279 193 323 338 343 44 46 351 337
294 301 311 316 322 333 343 337 276 245 272 291 291 270 313 309 311 295 345 20 46 345 357 5 353 351 17 341 25 34 159 113 323 150 228 284 129 9 353 338 312 33 339 324
295 296 303 309 311 295 313 316 287 248 289 248 297 315 293 284 305 312 323 341 341 332 57 51 48 258 114 341 279 46 69 98 131 24 231 264 8 342 319 300 272 357 336 330
289 290 296 300 301 278 276 307 289 242 251 272 299 232 291 282 280 276 307 335 339 22 32 34 156 291 119 1 242 274 344 8 186 236 252 277 10 334 323 41 299 326 320 310
288 285 283 290 292 261 261 301 301 253 247 278 276 271 250 253 279 302 329 336 353 24 42 35 307 55 316 29 344 199 136 272 261 1 288 283 8 359 356 293 318 312 307 300
280 276 267 276 282 249 251 289 305 278 249 263 279 288 282 262 246 268 298 282 351 29 74 8 330 345 2 220 293 17 1 127 249 190 234 306 339 337 308 329 316 313 313 308
268 264 257 267 255 239 257 265 302 313 271 288 279 299 278 302 280 243 239 228 25 65 24 213 236 272 120 297 336 322 56 17 229 8 327 331 322 326 324 321 316 314 311 309
262 251 241 262 247 234 255 255 295 309 270 279 286 269 242 271 273 193 206 251 298 3 320 65 189 194 308 219 232 176 215 360 319 258 290 323 303 319 324 321 313 310 317 315
251 238 239 255 236 231 257 264 295 286 236 286 287 297 247 264 222 198 204 218 221 21 6 9 249 313 18 356 312 242 131 248 285 271 310 300 298 310 315 314 315 322 327 325
240 225 244 248 213 229 231 287 277 285 223 289 295 316 286 236 235 197 200 208 181 125 40 277 283 249 159 238 236 148 49 335 301 282 303 307 303 311 323 320 326 334 331 325
224 223 225 247 209 221 214 226 306 294 173 264 293 287 279 322 177 189 192 197 180 176 161 226 250 285 98 213 258 13 338 331 325 322 324 319 328 316 326 332 330 327 333 326
212 216 224 197 210 223 247 261 275 235 208 257 274 274 300 178 168 171 161 170 222 229 234 222 247 189 207 246 10 345 346 338 328 327 330 326 325 330 336 335 332 338 337 336
198 190 191 202 213 228 249 302 241 191 208 256 242 266 286 324 173 144 169 210 181 213 213 138 102 234 215 23 341 351 340 336 318 327 336 335 337 335 337 339 343 343 340 341
183 179 171 200 215 193 154 168 173 205 236 234 249 230 271 321 175 196 180 179 171 195 190 134 185 103 130 28 4 346 337 335 337 335 335 336 334 335 338 340 343 345 342 343
174 179 171 175 152 155 197 219 195 193 241 223 235 215 218 264 230 165 203 197 152 163 179 208 208 145 77 359 354 344 343 347 347 342 336 347 337 337 341 347 347 349 345 350
177 148 151 157 188 212 242 215 186 207 241 210 204 206 211 258 257 81 357 112 58 201 142 218 165 119 29 347 334 336 341 342 350 356 357 356 349 350 357 357 353 357 354 351
138 144 151 181 170 238 221 216 193 228 218 215 204 187 190 215 206 124 107 209 221 124 192 136 83 136 352 343 336 334 339 340 348 348 356 352 353 5 9 4 9 8 4 359
145 161 187 213 193 235 201 223 326 313 264 292 263 235 197 181 97 157 127 247 138 226 105 92 156 203 2 334 337 338 335 341 347 354 357 354 354 5 14 16 16 13 9 4
170 192 219 216 235 229 230 241 261 242 266 285 287 261 164 126 116 29 51 325 41 45 154 180 170 76 350 343 331 341 12 16 358 356 359 357 358 4 11 16 15 17 17 12
189 219 248 258 283 251 215 245 260 280 279 290 210 96 66 358 146 103 208 99 196 173 161 184 175 162 347 334 10 38 32 20 16 10 16 12 5 359 6 14 15 22 23 21
216 233 235 254 295 265 237 226 262 257 284 261 115 187 204 160 102 112 120 179 191 151 155 167 182 152 87 18 33 31 24 25 25 22 18 15 16 17 10 15 15 20 26 28